Wetbulb
57.39 57.53 57.44 57.71 58.04 58.36 58.68 58.83 59.11 59.20 59.13 59.12 59.40 59.09 59.89 60.41 59.57 57.57 53.41 59.67 60.44 72.22 71.08 62.94 65.01 62.87 63.19 60.41 64.44 63.56 52.66 50.73 53.64 52.96 54.87 62.73 61.47 67.09 68.36 65.87 66.53 67.53 66.70 68.25 71.67
57.11 57.06 57.14 57.26 57.53 57.76 58.14 58.33 58.64 58.55 58.65 58.75 59.03 59.11 59.89 60.61 55.95 53.79 62.82 69.77 71.69 73.13 61.01 57.92 54.71 55.59 53.75 57.35 61.00 58.43 51.76 54.42 58.68 58.09 56.70 60.65 62.93 63.77 64.50 64.02 64.56 65.67 68.43 69.92 71.13
56.73 56.68 56.66 56.88 57.12 57.33 57.58 57.90 57.94 57.94 58.13 58.40 58.79 59.08 60.65 59.18 52.21 52.56 69.71 69.97 71.99 72.13 59.68 57.26 55.16 54.13 51.48 53.69 56.82 58.52 55.47 59.09 59.90 60.80 59.49 60.24 61.51 63.60 63.44 61.18 63.86 64.39 66.49 68.55 69.38
56.06 56.17 56.25 56.56 56.78 56.81 57.10 57.30 57.37 57.24 57.57 57.84 58.62 59.39 60.70 54.75 43.52 52.50 73.13 74.34 72.05 67.76 58.70 55.69 53.49 51.21 51.07 51.33 53.97 53.69 60.04 60.34 60.03 63.50 60.67 60.36 62.02 62.51 63.11 63.01 66.91 68.02 68.73 69.02 68.85
55.89 56.04 55.95 56.07 56.40 56.53 56.74 56.79 56.65 56.84 57.01 57.68 58.57 59.99 54.77 48.92 50.43 60.87 73.45 73.25 69.48 60.93 56.71 53.83 53.26 53.53 51.96 52.53 53.26 53.83 57.77 60.72 61.68 61.71 61.57 60.90 60.27 61.65 62.43 66.02 67.80 68.94 69.45 68.65 69.15
56.11 56.24 56.31 56.56 56.15 56.21 56.59 56.67 56.55 56.22 56.53 57.59 58.30 60.05 51.18 44.68 53.96 58.56 62.62 66.27 62.54 57.50 55.30 54.12 52.75 55.50 53.53 51.67 50.52 57.89 59.69 60.52 60.58 59.93 60.56 59.97 61.69 62.56 64.10 66.76 66.27 68.22 68.11 68.80 69.13
55.84 56.10 56.03 56.05 56.38 55.79 55.67 56.08 55.50 55.92 56.59 57.83 57.99 58.64 53.79 50.34 55.50 55.42 56.89 56.39 55.57 56.47 52.23 54.50 54.60 52.72 52.70 51.63 53.94 60.91 57.31 59.81 59.93 59.43 58.23 61.92 57.86 60.11 64.63 65.94 65.01 66.82 67.36 68.29 68.71
55.65 55.67 55.63 55.52 55.76 55.82 55.46 55.05 55.38 56.32 58.07 58.01 59.12 55.94 47.84 57.47 59.39 59.46 55.54 54.01 54.59 53.20 52.78 53.49 56.37 53.42 52.27 53.21 57.64 56.44 54.20 53.60 57.40 60.19 61.54 59.94 53.91 61.74 64.69 63.99 63.30 64.76 66.04 66.69 67.70
55.17 55.09 55.09 55.13 55.22 54.83 54.22 54.36 55.50 59.79 58.64 59.04 54.19 52.49 50.02 61.63 59.52 61.04 57.06 54.93 53.69 52.17 52.60 57.20 53.44 50.69 50.59 48.61 47.25 49.69 50.87 49.77 54.63 59.39 60.07 57.90 54.97 61.78 64.56 63.59 62.64 63.78 64.67 65.58 65.46
54.86 54.61 54.53 54.57 54.46 53.87 53.50 54.09 54.42 57.33 59.03 59.65 59.24 50.87 52.50 52.33 58.14 58.76 57.14 56.41 52.00 51.23 50.95 49.42 48.40 46.22 46.74 45.66 41.68 50.02 48.03 52.76 53.75 58.86 58.03 56.84 56.08 61.25 63.33 62.96 62.64 63.53 64.09 64.80 65.03
54.63 54.30 54.22 54.18 53.71 52.95 51.03 45.87 46.65 47.88 54.97 51.63 51.00 53.16 55.14 57.62 59.06 58.45 57.28 54.21 50.51 47.38 44.91 46.99 44.42 43.04 45.58 49.39 49.23 50.38 50.07 52.78 55.66 56.80 57.31 56.29 56.75 59.26 61.93 62.04 61.81 62.62 63.17 63.92 64.73
54.46 54.24 53.97 53.62 53.10 52.40 48.47 44.99 45.77 47.81 43.28 51.67 53.25 54.51 57.89 57.31 54.79 56.53 57.57 52.19 48.03 44.59 45.02 43.72 42.80 47.24 50.01 51.69 50.20 48.93 48.77 50.39 53.74 57.91 57.03 55.47 56.27 59.39 60.71 61.24 61.97 61.99 62.36 63.36 64.32
54.24 53.99 53.64 53.10 52.16 49.11 44.86 46.31 50.53 47.13 42.60 48.69 52.25 53.15 54.08 57.05 53.76 54.60 55.30 51.69 48.28 44.68 44.01 41.65 44.93 50.55 51.69 50.79 50.17 46.77 46.62 48.78 51.41 54.80 57.79 56.86 53.49 56.63 60.59 61.57 62.55 63.30 64.05 64.43 64.17
54.11 53.81 53.18 51.13 44.38 45.37 46.04 47.10 48.10 47.87 40.15 45.40 48.26 51.63 53.52 54.95 51.60 58.02 56.16 52.30 48.14 46.64 45.31 44.46 48.63 49.39 50.14 49.87 50.55 43.87 50.74 52.40 53.26 51.91 47.88 55.97 46.28 51.94 57.57 59.18 61.31 62.80 63.20 64.45 64.92
53.81 53.44 52.31 51.08 45.05 44.26 46.98 47.47 47.68 48.38 33.60 48.80 50.30 55.48 51.69 51.22 51.56 53.29 55.97 51.64 48.10 45.94 45.22 43.82 46.93 46.74 47.60 50.01 51.88 49.45 51.33 49.61 51.91 50.61 49.01 49.79 46.67 49.89 55.55 54.53 58.67 61.66 62.71 64.86 65.85
53.24 52.83 51.44 47.58 45.30 46.74 48.37 46.73 46.29 40.36 34.46 47.26 51.68 49.06 48.30 49.20 51.01 52.06 51.70 51.70 52.21 47.00 45.27 46.22 49.62 49.07 48.69 50.95 52.44 53.01 48.77 45.60 44.85 45.21 42.37 49.24 46.80 45.40 52.50 56.39 58.82 60.86 62.19 64.91 65.39
51.87 51.14 50.15 49.53 41.79 44.42 44.55 44.66 38.52 34.40 46.41 45.94 45.17 47.43 45.65 44.77 48.60 49.74 47.26 45.93 44.36 40.52 39.02 44.35 46.27 47.91 51.52 47.00 49.24 47.45 42.33 36.83 37.81 39.54 40.12 45.28 45.72 48.16 54.49 59.58 60.39 60.32 60.77 64.07 65.24
50.41 49.99 48.79 49.10 48.44 47.69 42.61 39.59 32.85 42.24 42.64 46.94 47.52 47.79 44.93 46.97 46.03 47.95 44.87 44.59 44.86 42.85 40.15 38.50 39.48 45.95 48.92 47.91 45.65 44.42 43.07 37.69 33.33 34.46 40.03 42.80 43.82 50.16 55.97 59.50 61.55 61.78 61.70 63.93 64.16
49.91 43.86 44.08 46.17 48.57 44.38 40.80 32.47 36.03 41.05 47.19 46.80 45.38 43.60 42.59 46.60 46.38 46.55 44.14 44.59 46.79 44.44 40.71 37.55 39.33 47.30 49.30 49.80 49.01 44.03 40.80 44.35 38.90 37.51 37.28 39.61 44.38 50.45 54.85 55.50 59.30 58.95 59.25 62.24 63.81
45.92 41.82 42.84 49.11 49.10 41.99 37.47 33.74 37.85 45.55 47.24 45.94 40.80 44.19 40.70 43.16 43.66 43.28 43.71 47.36 46.81 46.57 45.68 42.57 37.91 44.64 47.87 49.15 48.44 47.46 46.78 40.68 38.08 34.61 33.56 38.68 41.07 43.57 49.95 52.30 56.07 57.01 57.79 61.34 63.41
40.29 37.67 43.59 49.19 44.98 39.57 32.73 34.23 39.71 44.56 44.41 43.37 43.19 42.71 42.25 42.24 43.38 41.91 43.69 48.11 49.86 48.78 47.36 42.17 40.22 41.39 45.74 44.21 44.12 44.77 41.89 40.53 41.13 38.40 35.91 35.20 39.75 47.77 51.04 53.54 54.95 56.83 59.00 61.07 62.68
38.01 31.39 46.16 47.67 39.49 36.46 34.57 38.51 44.08 42.27 43.93 43.28 44.65 43.72 42.99 45.22 43.86 43.12 43.90 47.31 51.84 50.72 44.19 43.94 40.38 40.43 42.01 45.93 47.59 45.73 44.89 43.87 41.58 37.28 36.68 38.40 40.78 50.64 52.85 55.29 57.22 57.43 58.56 58.78 61.63
39.41 36.10 45.84 44.90 35.49 36.75 40.67 43.81 45.41 44.38 44.93 42.57 41.78 45.04 46.90 45.04 40.95 44.48 47.19 52.22 53.52 49.94 46.62 43.92 37.87 35.81 38.58 40.31 44.05 43.89 45.14 42.37 40.83 39.88 38.75 39.18 41.49 51.33 51.88 53.49 56.35 56.91 57.48 57.88 59.24
39.48 34.25 40.34 41.11 38.97 37.09 36.96 39.90 42.69 49.86 48.17 48.82 44.90 47.11 47.15 43.41 48.49 44.95 47.36 51.82 53.24 50.58 58.07 52.10 37.51 41.14 40.03 40.63 43.61 43.28 45.85 45.59 44.05 39.40 38.92 41.24 44.11 48.14 51.03 52.88 53.47 55.13 57.11 58.12 58.74
40.30 38.09 38.54 35.10 37.69 36.08 36.05 40.20 42.58 42.63 47.00 48.31 43.99 45.96 47.77 43.31 45.96 47.13 48.86 51.47 54.02 56.88 53.06 45.95 41.59 39.81 44.34 46.03 45.73 46.03 46.33 46.25 44.37 45.24 44.60 44.53 45.54 49.45 51.41 52.64 54.25 54.91 55.24 56.13 57.23
41.36 38.21 40.66 38.85 37.54 37.70 37.28 38.21 40.99 42.20 42.76 43.61 43.78 48.05 48.38 44.37 47.88 47.81 50.26 47.07 49.40 49.80 46.26 43.94 40.86 42.42 42.19 45.01 45.99 45.19 47.08 47.53 47.94 45.29 45.13 44.78 45.68 50.38 53.39 52.78 53.10 54.81 55.00 55.59 55.98
41.39 42.05 40.83 40.10 37.67 36.61 38.23 39.83 42.00 43.21 44.25 45.46 47.99 47.43 47.24 48.94 51.26 51.09 52.13 51.59 51.34 47.16 45.82 41.98 43.07 38.73 41.26 43.40 45.44 42.19 46.12 46.97 48.80 49.84 48.57 44.68 47.89 51.18 51.28 53.36 53.72 53.95 55.59 56.26 56.99
MSLP
1016.90 1016.36 1015.83 1015.29 1014.74 1014.26 1013.71 1013.17 1012.75 1012.37 1011.95 1011.42 1010.76 1010.47 1009.92 1009.36 1008.60 1007.97 1006.65 1003.85 1003.68 1003.67 1004.32 1004.44 1004.52 1004.61 1004.70 1004.73 1004.73 1005.12 1006.72 1007.74 1007.97 1008.23 1008.06 1008.26 1008.76 1009.14 1008.93 1009.50 1009.80 1010.20 1011.02 1011.80 1012.89
1016.94 1016.42 1015.90 1015.40 1014.78 1014.22 1013.70 1013.09 1012.56 1012.21 1011.76 1011.35 1010.73 1010.15 1010.01 1009.50 1008.88 1006.81 1002.75 1002.74 1002.76 1003.27 1003.94 1004.16 1004.26 1004.07 1004.41 1004.46 1004.55 1005.23 1006.60 1006.62 1006.46 1006.78 1007.30 1007.67 1008.23 1008.50 1009.16 1009.80 1010.13 1010.42 1011.19 1012.19 1012.91
1017.03 1016.42 1015.86 1015.30 1014.81 1014.21 1013.71 1013.07 1012.45 1012.02 1011.66 1011.14 1010.71 1010.10 1009.84 1009.63 1008.51 1003.92 1001.56 1002.00 1002.40 1002.98 1003.53 1003.74 1003.93 1003.99 1004.35 1004.59 1004.80 1005.02 1005.31 1005.26 1005.79 1005.84 1006.32 1007.07 1007.97 1008.19 1009.03 1009.81 1009.51 1009.87 1010.95 1012.07 1012.90
1016.99 1016.41 1015.81 1015.21 1014.56 1014.05 1013.53 1012.98 1012.28 1011.74 1011.38 1011.01 1010.54 1010.03 1009.64 1009.46 1006.64 1002.07 1001.56 1001.45 1002.01 1002.92 1003.53 1003.72 1003.97 1004.23 1004.42 1004.35 1004.08 1004.47 1004.15 1004.40 1004.92 1005.50 1006.21 1007.09 1007.85 1008.26 1008.92 1009.00 1009.44 1010.00 1010.88 1011.89 1012.66
1016.93 1016.26 1015.62 1015.05 1014.40 1013.72 1013.13 1012.65 1012.08 1011.39 1010.95 1010.68 1010.30 1009.90 1009.41 1008.37 1004.49 1001.80 1001.57 1001.63 1002.36 1002.92 1003.20 1003.41 1003.71 1004.01 1004.17 1004.04 1003.70 1003.43 1003.47 1003.96 1004.55 1005.69 1006.61 1007.03 1007.57 1008.10 1008.81 1009.01 1009.88 1010.62 1011.23 1011.92 1012.59
1016.88 1016.10 1015.37 1014.71 1014.09 1013.41 1012.73 1012.13 1011.48 1010.94 1010.49 1010.18 1010.04 1009.82 1009.35 1006.92 1002.08 1001.78 1001.58 1001.97 1002.19 1002.69 1003.10 1003.18 1003.17 1003.13 1003.64 1003.61 1003.33 1002.69 1003.23 1004.06 1004.85 1006.07 1006.56 1006.95 1008.01 1008.18 1009.16 1009.30 1009.96 1010.56 1011.25 1011.85 1012.36
1016.76 1016.13 1015.27 1014.44 1013.72 1013.03 1012.30 1011.55 1010.94 1010.27 1009.76 1009.58 1009.70 1009.52 1008.54 1004.19 1001.69 1001.64 1001.91 1001.78 1002.07 1002.21 1002.79 1002.87 1002.86 1003.12 1003.37 1003.30 1002.83 1002.72 1004.34 1004.77 1005.82 1006.41 1007.04 1007.09 1008.41 1008.82 1008.83 1009.51 1010.04 1010.61 1011.07 1011.54 1011.87
1016.57 1015.91 1015.27 1014.34 1013.43 1012.60 1011.79 1010.96 1010.11 1009.39 1008.85 1009.06 1009.23 1009.04 1006.58 1002.28 1001.71 1001.56 1001.48 1001.64 1001.78 1002.03 1002.39 1002.41 1002.65 1003.05 1003.38 1003.11 1002.93 1003.72 1005.05 1005.40 1006.11 1006.50 1006.72 1006.98 1008.42 1008.84 1009.08 1009.43 1010.01 1010.54 1011.00 1011.28 1011.55
1016.56 1015.74 1014.96 1014.16 1013.35 1012.29 1011.34 1010.32 1009.50 1008.75 1008.70 1009.17 1009.32 1008.41 1004.78 1001.97 1001.77 1000.60 1000.83 1001.20 1001.70 1001.93 1002.16 1002.12 1002.41 1002.98 1003.57 1004.04 1004.60 1004.60 1005.57 1005.98 1006.48 1006.28 1006.55 1007.36 1008.45 1008.78 1009.18 1009.66 1009.98 1010.28 1010.61 1010.79 1011.19
1016.45 1015.67 1014.76 1013.88 1013.01 1012.04 1010.90 1009.47 1009.05 1009.06 1008.95 1009.03 1008.35 1007.68 1003.62 1001.89 1001.04 1000.46 1000.47 1000.63 1001.36 1001.92 1002.41 1002.41 1002.62 1003.20 1004.09 1004.73 1005.23 1005.35 1006.29 1005.80 1005.09 1005.78 1006.53 1007.41 1007.55 1008.36 1008.92 1009.34 1009.67 1010.00 1010.25 1010.40 1010.62
1016.12 1015.39 1014.56 1013.71 1012.72 1011.87 1010.77 1009.43 1009.05 1008.99 1008.55 1007.50 1006.25 1004.95 1002.74 1001.38 1001.06 1000.40 1000.36 1000.70 1001.25 1001.81 1002.51 1002.56 1003.03 1003.19 1003.53 1003.67 1004.08 1004.72 1005.37 1005.24 1004.82 1005.10 1006.17 1006.92 1007.41 1007.86 1008.49 1009.05 1009.32 1009.58 1009.86 1010.13 1010.24
1016.00 1015.22 1014.34 1013.41 1012.39 1011.74 1011.23 1010.44 1009.44 1009.70 1007.88 1005.45 1004.01 1003.07 1001.56 1001.22 1001.19 1000.15 1000.28 1000.93 1001.44 1002.07 1002.42 1003.00 1002.79 1002.42 1002.64 1003.16 1003.65 1004.10 1004.64 1005.15 1005.13 1005.11 1005.96 1007.17 1007.61 1007.78 1008.03 1007.89 1007.89 1008.39 1008.86 1009.10 1009.66
1015.86 1015.00 1014.21 1013.25 1011.97 1011.62 1011.42 1009.73 1008.87 1008.86 1008.30 1003.28 1001.37 1000.61 999.87 1000.85 1000.55 999.94 1000.25 1000.44 1001.07 1001.91 1002.29 1002.54 1002.05 1002.01 1002.33 1002.61 1003.15 1003.81 1003.95 1004.17 1004.74 1005.67 1006.32 1007.29 1008.63 1008.44 1008.09 1007.97 1007.94 1007.89 1008.03 1008.60 1008.85
1015.71 1014.86 1014.36 1013.30 1011.81 1012.19 1010.50 1008.81 1008.95 1008.67 1007.68 1002.83 1000.52 998.87 998.91 999.35 999.60 998.92 999.26 999.99 1000.86 1001.37 1002.26 1002.31 1001.33 1001.63 1001.75 1001.81 1002.19 1002.90 1002.86 1003.32 1004.64 1005.94 1006.43 1006.62 1008.25 1008.12 1007.83 1007.78 1007.62 1007.44 1007.43 1007.58 1008.05
1015.38 1014.75 1014.53 1014.55 1013.82 1012.45 1009.23 1008.58 1008.32 1007.98 1006.76 1001.52 999.47 998.17 998.31 998.57 998.19 998.00 998.45 999.43 1000.28 1001.01 1001.70 1001.32 1000.75 1000.78 1001.07 1000.95 1001.49 1001.91 1002.42 1003.30 1004.38 1005.56 1006.56 1007.26 1007.61 1006.93 1007.22 1007.42 1006.42 1006.08 1006.31 1006.78 1007.36
1014.87 1014.11 1014.21 1013.92 1013.86 1010.45 1009.35 1008.96 1008.37 1008.23 1005.53 1001.52 999.33 998.63 998.86 998.71 997.84 997.75 998.26 998.83 999.69 1000.75 1000.94 1000.82 1000.27 1000.14 1000.08 1000.13 1000.96 1001.08 1002.37 1003.71 1005.16 1006.20 1006.97 1006.45 1006.66 1006.54 1006.10 1004.85 1004.29 1005.12 1005.32 1005.79 1006.42
1014.21 1012.98 1013.49 1013.30 1011.50 1009.74 1009.28 1009.15 1008.79 1007.17 1003.99 1001.63 1000.30 999.37 998.81 998.81 998.26 998.20 998.69 999.24 999.70 1000.73 1000.84 1000.74 1000.21 999.84 999.62 1000.02 1000.83 1001.67 1003.53 1005.17 1006.46 1007.06 1007.00 1005.69 1006.35 1004.30 1003.49 1002.63 1002.38 1002.96 1003.86 1004.53 1005.51
1013.23 1011.74 1010.67 1010.07 1009.40 1010.25 1010.26 1009.87 1008.24 1005.41 1003.69 1001.45 1000.73 999.64 999.28 998.67 998.82 998.86 999.04 999.54 999.85 1000.25 1001.02 1001.26 1000.53 999.66 999.41 999.76 1000.55 1001.76 1003.03 1004.95 1006.05 1007.14 1006.70 1006.01 1005.19 1002.77 1001.50 1001.40 1001.58 1002.28 1002.76 1003.80 1004.69
1012.34 1011.14 1010.51 1008.38 1009.25 1009.82 1009.76 1009.27 1006.76 1004.99 1003.19 1002.17 1001.15 1000.41 999.93 999.54 999.44 999.33 999.52 999.56 999.39 999.87 1000.56 1001.25 1000.42 999.47 999.19 999.40 1000.09 1001.28 1002.46 1003.18 1004.94 1006.52 1006.38 1005.31 1003.92 1001.95 1000.91 1000.99 1001.18 1001.55 1002.56 1003.08 1003.55
1013.11 1011.96 1009.75 1008.04 1008.66 1009.19 1009.18 1007.64 1005.98 1004.20 1002.76 1002.21 1001.88 1001.08 1000.75 1000.42 1000.33 1000.04 999.64 998.67 998.73 998.94 999.35 1000.16 1000.46 999.46 998.99 999.07 999.38 999.85 1001.21 1003.20 1004.66 1005.75 1005.95 1004.97 1003.52 1002.01 1001.19 1000.63 1001.02 1001.48 1001.65 1002.10 1002.74
1013.50 1012.05 1008.47 1008.07 1008.57 1008.83 1008.16 1006.88 1005.02 1003.48 1002.93 1002.41 1001.86 1001.35 1000.97 1000.88 1000.59 1000.23 999.52 998.29 998.03 998.09 998.84 999.83 1000.16 999.67 999.01 998.72 998.85 1000.06 1000.78 1002.36 1003.43 1004.46 1004.95 1004.66 1002.88 1000.78 1000.01 999.99 1000.38 1000.44 1000.58 1001.05 1001.89
1014.60 1012.81 1008.96 1008.67 1008.95 1008.66 1007.57 1005.95 1004.23 1003.23 1002.62 1002.26 1001.68 1001.20 1001.15 1000.86 1000.16 999.91 998.83 997.69 996.43 996.68 998.03 998.87 999.59 999.93 998.85 998.30 998.09 998.63 999.61 1000.79 1002.41 1003.99 1004.18 1003.41 1001.37 999.71 999.24 999.38 999.93 1000.09 1000.33 1000.72 1001.26
1015.07 1013.44 1009.23 1008.99 1008.97 1008.45 1007.06 1005.44 1004.29 1003.12 1002.54 1001.90 1001.56 1000.97 1000.60 1000.65 1000.06 998.85 997.77 996.15 995.34 995.48 996.13 997.84 998.83 999.53 999.16 998.56 998.14 998.42 999.21 1000.13 1001.12 1001.77 1002.66 1002.62 1001.00 999.59 999.19 999.26 999.60 1000.20 1000.47 1000.67 1001.01
1015.67 1013.87 1010.61 1009.37 1008.96 1008.54 1007.91 1006.08 1004.50 1002.90 1002.24 1001.61 1001.22 1000.93 1000.40 999.70 999.02 998.45 997.61 996.27 994.75 994.52 994.78 996.03 997.65 998.24 997.67 997.44 997.43 997.93 998.23 998.98 999.47 1000.95 1001.31 1000.96 1000.27 999.49 999.38 999.06 999.42 999.56 1000.31 1000.41 1000.65
1015.63 1013.93 1012.44 1011.09 1009.87 1009.50 1008.34 1006.83 1004.92 1003.47 1002.22 1001.36 1000.83 1000.38 999.55 999.33 998.64 998.24 997.64 996.32 995.00 994.90 995.00 995.55 996.74 997.32 996.72 996.67 997.01 996.82 997.26 997.93 998.21 998.32 999.27 999.35 999.43 998.67 998.42 998.28 998.44 998.55 999.44 1000.26 1000.40
1015.66 1015.04 1013.48 1012.11 1010.75 1009.84 1008.15 1006.84 1005.70 1004.17 1003.17 1001.69 1000.75 999.57 999.02 998.66 997.60 997.78 997.23 997.03 996.01 995.43 995.57 995.55 996.06 996.46 996.62 996.15 996.32 996.35 996.12 996.65 997.07 997.22 997.39 997.69 998.10 997.10 996.98 997.77 998.32 998.44 998.92 999.58 999.99
1015.67 1015.22 1014.63 1012.50 1010.96 1010.09 1008.56 1007.57 1006.11 1005.21 1002.74 1001.85 1000.84 999.95 998.70 997.85 996.93 996.17 996.92 996.75 996.65 996.89 996.23 996.47 996.43 996.84 996.62 996.19 996.31 996.02 995.22 995.38 995.88 996.28 996.41 997.04 997.08 997.01 997.54 997.70 997.76 998.01 998.35 998.84 999.44
Wind_Speed
21 22 22 22 22 22 21 21 20 18 17 17 18 16 16 15 17 1 8 12 8 8 6 4 5 4 5 5 5 2 6 3 5 6 5 10 6 7 5 11 4 5 8 12 18
22 22 22 22 23 23 22 22 21 20 19 17 17 17 14 12 4 8 16 12 12 13 5 7 4 3 2 1 2 5 5 7 7 7 9 15 14 15 7 12 3 11 15 17 19
22 23 23 23 23 23 22 22 22 21 19 18 16 16 12 7 5 10 3 20 15 11 5 4 3 2 2 4 5 6 8 6 7 7 16 14 10 3 17 7 11 24 21 21 17
24 23 23 24 25 24 23 22 23 22 20 18 16 15 13 2 7 2 2 6 14 9 5 6 4 5 3 3 3 4 13 7 6 7 8 15 8 7 7 4 17 19 22 20 18
25 25 24 23 24 25 24 23 22 23 21 19 14 12 5 2 14 2 3 7 9 9 9 6 6 6 5 5 5 8 5 10 10 9 10 7 6 6 5 12 16 18 20 20 18
24 25 25 24 24 24 24 23 23 24 22 18 12 9 2 6 5 5 5 7 5 7 8 6 7 7 3 4 1 3 7 9 8 8 5 12 6 6 7 15 18 20 20 19 18
23 24 26 26 26 26 25 25 26 25 22 15 7 4 2 19 3 5 1 2 4 8 7 6 3 2 2 7 4 12 8 9 4 4 6 13 4 6 16 18 18 19 18 18 18
25 25 25 26 26 27 26 26 27 25 16 7 7 3 10 5 4 7 4 3 4 3 2 5 7 4 5 6 6 8 5 10 4 5 8 7 4 12 16 19 18 18 16 16 17
24 26 27 26 27 28 28 29 24 8 5 7 2 3 11 7 4 5 7 4 7 4 3 2 3 5 4 5 6 6 12 3 5 9 5 2 5 15 16 16 16 15 16 15 13
24 25 26 26 27 27 29 27 9 3 2 5 6 2 6 3 5 2 4 5 4 6 3 5 2 4 4 5 7 12 7 9 14 16 7 6 6 18 18 17 18 16 14 15 13
25 25 26 27 27 25 19 6 5 4 2 7 8 8 18 8 4 4 2 6 4 4 7 4 4 8 11 8 7 10 6 15 10 7 6 6 10 20 19 17 16 16 15 14 15
24 25 27 28 28 28 1 3 2 3 14 13 21 18 19 4 6 14 7 4 6 7 4 2 8 10 7 8 8 7 6 8 3 8 6 4 7 18 20 22 20 19 17 18 15
24 25 25 29 31 3 3 6 5 5 4 10 12 12 10 14 11 15 9 5 4 6 5 7 7 8 7 6 8 5 7 6 8 7 6 10 4 9 12 7 13 14 15 14 17
24 25 24 31 3 5 6 2 2 4 3 11 6 8 8 11 7 10 10 8 3 11 6 6 9 8 5 5 7 4 9 8 10 15 9 7 6 9 12 14 12 14 13 16 17
24 24 21 13 8 4 5 10 8 3 5 6 5 2 3 14 7 9 7 5 12 5 8 8 6 6 5 8 8 11 8 9 9 13 6 5 5 7 11 10 21 19 17 18 17
25 26 23 3 3 11 12 11 1 6 10 8 3 3 3 4 5 3 6 5 8 6 3 12 4 6 9 5 9 2 4 8 6 5 5 12 8 5 13 27 26 17 17 19 18
28 30 18 4 8 3 5 5 5 6 5 5 4 5 2 1 5 4 6 8 9 8 6 2 6 3 4 3 3 6 8 3 4 2 7 8 4 11 20 25 26 26 21 20 18
31 33 6 8 10 6 2 5 5 7 9 6 7 9 4 2 3 3 6 9 5 6 5 6 9 8 3 9 8 7 11 9 8 5 7 6 8 11 17 22 22 17 20 17 19
29 4 4 5 8 5 5 3 9 7 4 4 5 5 5 5 5 3 7 10 13 11 9 7 9 4 5 7 12 4 5 10 6 1 4 5 7 9 6 12 17 19 15 19 20
9 5 6 2 10 3 5 7 7 6 5 2 1 2 2 4 7 6 3 6 11 11 8 9 2 6 5 5 6 12 8 2 2 6 5 4 4 7 7 8 11 14 17 19 18
3 6 3 6 3 5 6 9 7 7 4 3 4 5 4 4 5 3 8 12 12 14 14 9 7 6 6 8 9 3 3 4 6 4 9 5 8 9 8 9 18 20 22 19 17
4 5 4 3 2 1 4 8 5 4 4 5 4 5 5 6 7 5 10 8 11 17 14 11 8 11 14 6 3 7 10 10 7 7 1 5 9 5 9 9 14 16 15 10 13
7 5 6 3 1 3 6 4 3 3 8 6 6 6 3 9 6 4 14 19 18 18 16 10 5 5 9 4 1 5 6 6 3 4 9 8 8 2 4 6 10 11 10 11 13
3 5 5 4 1 2 5 6 4 5 4 7 6 6 8 5 7 7 12 14 10 13 21 15 6 13 15 9 6 6 6 9 9 6 6 8 6 4 7 9 8 10 11 14 16
2 4 1 5 3 5 2 4 5 3 4 7 4 11 10 9 6 5 13 8 7 2 4 13 13 9 18 16 7 7 7 7 9 11 11 9 11 10 13 14 15 13 8 11 14
3 4 6 5 4 4 1 3 4 2 4 8 8 11 9 9 7 5 2 3 8 5 3 3 9 9 12 10 14 11 16 12 16 3 5 7 7 8 10 5 5 12 11 9 8
2 4 0 5 4 3 2 5 9 11 8 12 13 5 6 7 6 10 11 12 9 4 1 4 7 7 17 6 6 5 9 11 7 5 5 7 12 7 4 8 11 11 13 12 9
Wind_Direction
354 351 348 345 343 342 339 337 337 337 336 332 327 326 322 317 314 310 252 220 182 142 172 147 233 194 187 210 176 135 52 151 171 174 159 162 137 185 103 134 152 166 137 144 151
351 349 346 344 340 339 337 334 333 333 331 331 326 321 322 327 305 259 237 210 190 147 160 180 189 186 114 119 357 90 126 221 183 173 171 178 161 162 129 165 93 112 115 143 151
348 346 344 341 339 336 335 331 327 326 327 326 323 318 315 326 310 250 228 215 206 171 182 141 109 121 128 151 193 196 207 168 186 180 165 162 168 145 145 195 181 149 146 156 162
345 343 341 339 337 334 332 329 323 321 321 321 319 316 314 266 287 271 354 242 190 161 153 153 137 128 169 209 221 162 234 167 167 143 138 155 130 107 158 243 158 149 150 158 168
340 338 336 337 335 331 328 326 320 317 315 316 314 315 317 298 249 26 326 111 130 145 163 145 142 154 179 201 255 197 185 171 141 113 129 117 119 130 193 136 143 149 156 165 175
338 335 333 332 332 330 327 322 317 313 311 308 301 307 245 260 244 338 198 132 143 134 158 155 189 197 181 242 211 209 154 123 111 143 135 126 126 99 160 144 149 158 165 173 179
337 334 331 330 328 328 324 319 314 311 305 293 265 253 217 238 294 340 325 189 131 165 142 199 173 43 91 324 231 137 93 78 78 175 121 120 69 153 151 157 153 164 172 177 187
334 332 330 328 327 324 321 316 313 311 299 250 202 201 243 252 283 282 176 278 133 142 184 166 152 160 147 269 33 91 36 131 221 194 181 87 185 158 163 164 168 169 178 184 192
332 331 329 328 326 323 320 315 315 333 85 157 172 197 264 310 252 262 160 205 123 146 238 255 165 177 122 104 30 43 168 191 169 214 139 111 138 175 170 173 176 182 183 189 190
332 330 327 327 325 324 321 306 278 16 155 210 256 332 273 303 316 297 216 147 134 131 167 182 104 130 66 112 179 183 179 197 172 201 184 206 166 163 176 173 183 191 198 200 193
332 329 327 325 325 325 333 351 8 355 195 237 240 261 284 275 261 275 278 115 110 114 160 202 133 190 195 186 149 139 177 202 208 163 121 192 152 174 179 185 190 193 198 205 209
330 328 327 325 323 323 289 32 41 129 297 237 244 242 245 81 314 283 156 167 140 192 144 72 215 210 187 148 136 139 179 200 326 159 95 170 175 179 184 194 192 190 196 199 201
328 326 329 326 318 341 273 231 34 11 249 275 220 220 216 160 218 255 147 158 165 172 183 174 229 150 185 156 142 170 174 185 182 156 43 113 5 207 216 219 210 205 206 201 188
327 326 332 335 20 332 270 339 322 197 339 278 271 265 159 142 228 218 175 139 215 194 147 222 246 173 181 201 137 198 203 208 151 162 185 173 214 229 211 219 221 215 202 201 192
324 320 330 336 288 294 286 326 332 94 329 261 275 332 164 168 154 216 169 130 190 197 141 231 212 167 175 200 144 228 151 195 177 183 118 207 102 252 159 222 229 217 210 202 194
322 315 326 341 258 246 316 308 48 50 253 307 318 0 93 269 176 121 140 120 151 201 197 210 223 172 194 211 176 205 98 39 50 121 194 199 160 238 181 214 224 218 212 199 193
319 310 303 246 232 158 321 4 66 166 316 277 325 339 137 296 227 160 145 173 167 170 220 351 242 229 164 250 134 97 79 333 342 1 214 194 139 229 210 215 215 206 205 199 190
320 309 249 201 221 285 38 56 197 216 247 308 328 337 353 108 245 202 145 192 262 112 157 165 240 177 183 185 170 178 159 161 187 203 227 128 203 242 210 221 215 212 207 192 192
322 321 271 245 171 148 99 159 202 198 219 293 337 0 324 25 17 142 203 210 212 177 172 157 255 284 206 189 155 189 156 196 137 348 98 217 277 328 298 213 203 202 188 200 196
320 326 271 103 153 117 92 223 220 221 346 12 236 234 309 8 11 34 300 218 222 186 169 213 257 213 235 173 224 192 166 91 352 164 234 251 242 221 223 206 203 189 195 202 196
12 343 285 149 150 42 175 219 231 249 277 230 244 255 233 309 206 250 239 274 233 212 192 152 150 266 141 194 198 140 181 77 125 143 170 221 258 213 226 192 186 195 201 197 188
11 328 3 143 62 208 187 193 232 242 303 263 258 247 234 266 264 276 240 228 236 197 180 199 172 232 229 229 191 181 208 179 196 247 200 166 260 232 222 200 187 199 193 190 189
321 271 298 140 210 264 300 294 267 218 234 217 240 229 357 290 289 219 290 285 294 208 188 170 210 210 324 335 181 179 192 174 131 95 186 153 252 268 200 180 195 177 188 184 195
302 323 311 26 1 55 1 271 254 255 268 258 242 236 263 227 229 280 282 287 307 206 205 150 139 198 224 219 160 186 190 195 156 150 168 210 202 248 215 181 194 215 183 185 196
224 259 287 310 337 327 220 278 283 281 254 261 258 208 205 195 227 254 275 280 297 276 216 162 192 175 227 216 191 233 226 197 187 190 177 212 193 211 205 197 202 197 185 176 199
326 353 339 284 298 290 260 255 278 348 273 283 217 223 201 191 189 216 302 259 246 317 354 259 209 159 228 214 199 222 245 222 225 180 112 128 225 218 210 78 130 190 182 188 181
296 308 248 292 307 326 207 346 299 319 264 232 285 287 219 230 224 189 228 253 242 261 255 165 178 140 230 173 173 223 221 198 169 151 154 147 219 155 167 192 194 197 190 185 172